USA 270

Last updated on Jan. 22, 2020, 4:37 a.m. UTC

1 41744U 16052A   20020.81712932  .00000147  00000-0  00000+0 0  9992
2 41744   0.2075  97.6409 0000332  44.4808 308.0394  1.00132067  4682
UTC
Height (km)
Latitude
Longitude
Inclination
Orbital Period
UTC large
Height (km)
Speed (km/s)
/
Latitude / Longitude
Inclination (degrees)
Orbital Period (minutes)
Azimuth
Elevation
Range (km)
Doppler Factor
iOS Compass Heading
iOS Angle

Next 30 passes for location: Hong Kong

Rise time Rise Azimuth (degrees) Set time Set Azimuth (degrees) Duration Max altitude (degrees)

No matching passes for this satellites